Regional Weather Roundup
Issued by NWS

Home | Current Version | Previous Version | Graphics & Text | Print | Product List | Glossary On
Versions: 1 2 3 4 5 6 7 8 9 10 11 12 13 14 15 16 17 18 19 20 21 22 23 24 25 26 27 28 29 30 31 32 33 34 35 36 37 38 39 40 41 42 43 44 45 46 47 48 49 50
000
ASUS43 KDMX 041807
RWRIA

WEATHER ROUNDUP FOR IOWA
NATIONAL WEATHER SERVICE DES MOINES IA
100 PM CDT FRI SEP 04 2015

NOTE: "FAIR" INDICATES FEW OR NO CLOUDS BELOW 12,000 FEET WITH NO
SIGNIFICANT WEATHER AND/OR OBSTRUCTIONS TO VISIBILITY.

* - THESE STATIONS ARE NOT NWS STATIONS...THUS NOT UNDER NWS
QUALITY CONTROL.  THEY ALSO DO NOT REPORT WEATHER SUCH
AS PRECIPITATION OR FOG.

IAZ001>003-012>014-020>022-031>034-043>046-041900-
   NORTHWEST IOWA

CITY           SKY/WX    TMP DP  RH WIND       PRES   REMARKS
CARROLL *      SUNNY     82  73  74 S13       29.92F HX  88
CHEROKEE *     LGT RAIN  78  72  81 SE5       29.90F HX  81
DENISON *      SUNNY     84  73  70 S10       29.90S HX  91
LE MARS *      CLOUDY    75  72  88 CALM      29.89S
ORANGE CITY *  LGT RAIN  75  72  88 E3        29.90F
SHELDON *      SUNNY     77  70  78 S5        29.90F
SIOUX CITY     LGT RAIN  79  72  79 SE9       29.88R HX  82
6HR MIN TEMP:  71; 6HR MAX TEMP:  79; 6HR PCP:  0.07;

SPENCER        PTSUNNY   83  68  60 SW13      29.93S HX  86
6HR MIN TEMP:  71; 6HR MAX TEMP:  84;

STORM LAKE *   SUNNY     79  72  78 S8G14     29.93F HX  82
$$

IAZ055>058-069>071-079>083-090>094-041900-
   SOUTHWEST IOWA

CITY           SKY/WX    TMP DP  RH WIND       PRES   REMARKS
ATLANTIC *     SUNNY     86  72  62 S10G16    29.93S HX  92
AUDUBON *      SUNNY     86  73  66 S13       29.94F HX  93
CLARINDA *     SUNNY     86  72  62 S13G20    29.95F HX  92
COUNCIL BLFS * SUNNY     84  72  65 S8G16     29.91S HX  89
CRESTON *      SUNNY     84  72  65 S15       29.97F HX  89
LAMONI         PTSUNNY   87  71  58 S9        29.98F HX  93
6HR MIN TEMP:  70; 6HR MAX TEMP:  87;

RED OAK *      SUNNY     88  73  62 S14G20    29.92F HX  96
SHENANDOAH *   SUNNY     90  72  55 S14G21    29.92F HX  96
$$

IAZ047>049-059>061-072>074-084-041900-
   CENTRAL IOWA

CITY           SKY/WX    TMP DP  RH WIND       PRES   REMARKS
AMES           MOSUNNY   86  72  62 SW12      29.95F HX  92
6HR MIN TEMP:  67; 6HR MAX TEMP:  86;

ANKENY *       SUNNY     88  72  58 S9G17     29.95F HX  94
CHARITON *     SUNNY     88  72  58 SW9       29.98F HX  94
DES MOINES     PTSUNNY   87  69  54 SW12      29.95F HX  91
6HR MIN TEMP:  71; 6HR MAX TEMP:  89;

GRINNELL*      SUNNY     86  70  58 S10       29.99F HX  90
KNOXVILLE *    SUNNY     88  72  58 S12G17    29.97S HX  94
MARSHALLTOWN   SUNNY     86  72  62 S15       29.96F HX  92
6HR MIN TEMP:  67; 6HR MAX TEMP:  86;

PELLA *        SUNNY     90  75  62 S10G16    29.98F HX 100
PERRY *          N/A     85  71  61 S10       29.94S HX  90
$$

IAZ004>006-015-016-023>025-035-036-041900-
   NORTH CENTRAL IOWA

CITY           SKY/WX    TMP DP  RH WIND       PRES   REMARKS
ALGONA *       SUNNY     84  73  70 S12G17    29.94R HX  91
CLARION *      SUNNY     84  73  70 S9G16     29.94F HX  91
ESTHERVILLE    PTSUNNY   83  72  69 S12       29.93R HX  88
6HR MIN TEMP:  68; 6HR MAX TEMP:  83;

FORT DODGE *   PTSUNNY   86  72  62 S10       29.94S HX  92
MASON CITY     SUNNY     86  73  65 S13       29.96S HX  93
6HR MIN TEMP:  68; 6HR MAX TEMP:  86;

FOREST CITY *  SUNNY     86  70  58 S12       29.94S HX  90
IOWA FALLS *     N/A     88  72  58 S10       29.97S HX  94
$$

IAZ007>011-017>019-026>030-037>042-050>054-066-041900-
   NORTHEAST IOWA

CITY           SKY/WX    TMP DP  RH WIND       PRES   REMARKS
CEDAR RAPIDS   SUNNY     87  73  62 S12       29.98F HX  94
6HR MIN TEMP:  68; 6HR MAX TEMP:  87;

CHARLES CITY * SUNNY     86  73  66 S12       29.97S HX  93
CLINTON *      SUNNY     88  72  58 CALM      30.03F HX  94
DECORAH *      SUNNY     84  72  65 S8        29.98S HX  89
DUBUQUE        SUNNY     84  71  65 CALM      30.02F HX  89
6HR MIN TEMP:  69; 6HR MAX TEMP:  85;

MONTICELLO *   MOSUNNY   88  72  58 S8        29.99F HX  94
OELWEIN *      MOSUNNY   86  73  66 SE8       29.99F HX  93
WATERLOO       SUNNY     88  71  57 SW12      29.95F HX  94
6HR MIN TEMP:  68; 6HR MAX TEMP:  88;

$$

IAZ064-065-067-068-078-041900-
   EAST CENTRAL IOWA

CITY           SKY/WX    TMP DP  RH WIND       PRES   REMARKS
DAVENPORT      MOSUNNY   87  70  56 S5        30.01F HX  92
6HR MIN TEMP:  69; 6HR MAX TEMP:  89;

IOWA CITY      SUNNY     88  69  53 S10       29.99F HX  92
6HR MIN TEMP:  70; 6HR MAX TEMP:  88;

MT. PLEASANT * MOSUNNY   92  62  36 SW8       30.00S HX  93
MUSCATINE *    MOSUNNY   91  68  46 SW7       29.99F HX  95
QUAD CITIES    PTSUNNY   91  70  49 CALM      29.99F HX  96
6HR MIN TEMP:  69; 6HR MAX TEMP:  92;

$$

IAZ062-063-075>077-085>089-095>099-041900-
   SOUTHEAST IOWA

CITY           SKY/WX    TMP DP  RH WIND       PRES   REMARKS
BURLINGTON     MOSUNNY   90  69  50 S6        30.00F HX  94
6HR MIN TEMP:  70; 6HR MAX TEMP:  91;

FAIRFIELD *    SUNNY     90  68  48 VRB7G15   29.99F HX  93
FORT MADISON * SUNNY     90  72  55 S6        30.01F HX  96
KEOKUK *       MOSUNNY   91  70  49 S8        29.99F HX  97
OSKALOOSA *      N/A     90  68  48 S7        29.99F HX  94
CENTERVILLE *  SUNNY     88  72  58 S7        30.01F HX  94
OTTUMWA        MOSUNNY   89  72  56 SW10      29.97F HX  96
6HR MIN TEMP:  69; 6HR MAX TEMP:  89;

WASHINGTON *     N/A    N/A N/A N/A MISG        N/A
$$

ABBREVIATIONS USED IN REMARKS
   TC - TEMPERATURES IN CELSIUS
  WCI - WIND CHILL INDEX
   HX - HEAT INDEX
  VSB - VISIBILITY
$$



USA.gov is the U.S. government's official web portal to all federal, state and local government web resources and services.